This is the latest recevied weather packets stored in our database for station/object K3MV-13. If no packets are shown the sender has not sent any weather packets the latest 10 day(s).
| Time | Temp. | Humidity | Pressure | Rain* | Wind** | Luminosity | Snow |
|---|---|---|---|---|---|---|---|
| 1777301648 | 15° C | 47% | 1022.9 hPa | 0 mm | - | 685 W/m² | - |
| 1777301345 | 14.44° C | 51% | 1023.1 hPa | 0 mm | - | 676 W/m² | - |
| 1777301041 | 14.44° C | 49% | 1023.3 hPa | 0 mm | - | 665 W/m² | - |
| 1777300739 | 14.44° C | 51% | 1023.3 hPa | 0 mm | - | 652 W/m² | - |
| 1777300437 | 14.44° C | 50% | 1023.5 hPa | 0 mm | - | 640 W/m² | - |
| 1777300135 | 14.44° C | 50% | 1023.5 hPa | 0 mm | - | 628 W/m² | - |
| 1777299830 | 14.44° C | 53% | 1023.3 hPa | 0 mm | - | 615 W/m² | - |
| 1777299529 | 14.44° C | 53% | 1023.5 hPa | 0 mm | - | 598 W/m² | - |
| 1777299226 | 14.44° C | 55% | 1023.4 hPa | 0 mm | - | 590 W/m² | - |
| 1777298923 | 13.89° C | 58% | 1023.5 hPa | 0 mm | - | 575 W/m² | - |
| 1777298620 | 14.44° C | 53% | 1023.7 hPa | 0 mm | - | 555 W/m² | - |
| 1777298316 | 13.89° C | 57% | 1023.5 hPa | 0 mm | - | 513 W/m² | - |
| 1777298012 | 13.89° C | 58% | 1023.7 hPa | 0 mm | - | 525 W/m² | - |
| 1777297708 | 13.89° C | 58% | 1023.5 hPa | 0 mm | - | 512 W/m² | - |
| 1777297406 | 13.33° C | 64% | 1023.7 hPa | 0 mm | - | 500 W/m² | - |
| 1777297102 | 12.78° C | 63% | 1023.6 hPa | 0 mm | - | 488 W/m² | - |
| 1777296795 | 12.22° C | 66% | 1023.4 hPa | 0 mm | - | 434 W/m² | - |
| 1777296489 | 11.67° C | 65% | 1023.5 hPa | 0 mm | - | 448 W/m² | - |
| 1777296186 | 11.67° C | 63% | 1023.6 hPa | 0 mm | - | 149 W/m² | - |
| 1777295882 | 11.67° C | 67% | 1023.7 hPa | 0 mm | - | 423 W/m² | - |
| 1777295579 | 11.11° C | 67% | 1023.5 hPa | 0 mm | - | 324 W/m² | - |
| 1777295276 | 11.11° C | 67% | 1023.7 hPa | 0 mm | - | 386 W/m² | - |
| 1777294975 | 11.11° C | 70% | 1023.5 hPa | 0 mm | - | 256 W/m² | - |
| 1777294670 | 10.56° C | 70% | 1023.6 hPa | 0 mm | - | 63 W/m² | - |
| 1777294366 | 10.56° C | 70% | 1023.4 hPa | 0 mm | - | 56 W/m² | - |
* Rain latest hour (hover to see other rain measurements)
** Current wind speed in m/s (hover to see current wind gust speed)